Location: Les Thiberg�res
(47.8554°N, 1.0978°W)
Time: 23:54:19
(UTC+00:00)

PAYLOAD A - Pass Details

Date: 17 February 2020
Orbit: 693 x 831 km, 98.3° (Epoch: 09 April)

Event Time Altitude Azimuth Distance (km) Brightness Sun altitude
Rises 04:06:18 0° 16° (NNE) 3,124 7.6 -30.9°
Reaches altitude 10° 04:08:33 10° 19° (NNE) 2,215 6.8 -30.6°
Enters shadow 04:12:30 54° 50° (NE) 888 4.5 -29.9°
